This is the latest recevied weather packets stored in our database for station/object KK4MOR. If no packets are shown the sender has not sent any weather packets the latest 10 day(s).
| Time | Temp. | Humidity | Pressure | Rain* | Wind** | Luminosity | Snow |
|---|---|---|---|---|---|---|---|
| 1777998650 | 20.56° C | 64% | 1011.4 hPa | 0 mm | - | - | - |
| 1777997740 | 20° C | 66% | 1011.5 hPa | 0 mm | - | - | - |
| 1777996837 | 20° C | 66% | 1011.5 hPa | 0 mm | - | - | - |
| 1777995956 | 20° C | 65% | 1011.5 hPa | 0 mm | - | - | - |
| 1777995034 | 19.44° C | 67% | 1011.4 hPa | 0 mm | - | - | - |
| 1777994131 | 19.44° C | 67% | 1011.3 hPa | 0 mm | - | - | - |
| 1777993229 | 18.89° C | 68% | 1011.5 hPa | 0 mm | - | - | - |
| 1777992329 | 18.33° C | 69% | 1011.4 hPa | 0 mm | - | - | - |
| 1777991430 | 18.33° C | 70% | 1011.1 hPa | 0 mm | - | - | - |
| 1777990522 | 17.78° C | 73% | 1011.2 hPa | 0 mm | - | - | - |
| 1777989622 | 17.22° C | 74% | 1010.8 hPa | 0 mm | - | - | - |
| 1777988716 | 16.67° C | 73% | 1010.9 hPa | 0 mm | - | - | - |
| 1777987823 | 16.67° C | 73% | 1011 hPa | 0 mm | - | - | - |
| 1777986912 | 16.11° C | 74% | 1010.9 hPa | 0 mm | - | - | - |
| 1777986021 | 15.56° C | 74% | 1011 hPa | 0 mm | - | - | - |
| 1777985113 | 15° C | 77% | 1011.1 hPa | 0 mm | - | - | - |
| 1777984209 | 14.44° C | 78% | 1011.3 hPa | 0 mm | - | - | - |
| 1777983305 | 13.89° C | 79% | 1011.2 hPa | 0 mm | - | - | - |
| 1777982403 | 13.89° C | 80% | 1010.8 hPa | 0 mm | - | - | - |
| 1777981503 | 12.78° C | 82% | 1010.5 hPa | 0 mm | - | - | - |
| 1777980666 | 12.78° C | 83% | 1010.3 hPa | 0 mm | - | - | - |
| 1777979759 | 12.22° C | 83% | 1010.1 hPa | 0 mm | - | - | - |
| 1777978878 | 11.67° C | 84% | 1010 hPa | 0 mm | - | - | - |
| 1777977957 | 11.67° C | 83% | 1009.8 hPa | 0 mm | - | - | - |
| 1777977055 | 12.22° C | 82% | 1009.6 hPa | 0 mm | - | - | - |
* Rain latest hour (hover to see other rain measurements)
** Current wind speed in m/s (hover to see current wind gust speed)